weather.gov     
National Weather Service

Terminal Aerodrome Forecast
NWS Homepage
This page is being discontinued on March 12, 2014.
The same data is available at this site. Please update your bookmarks.
Thank you, and we apologize for the inconvenience.
Please send an email to SR-SRH.Webmaster@noaa.gov with any concerns.


Current Version
Previous Version:    01  02  03  04  05  06  07  08  09  10  11  12  13  14  15  16  17  18  19  20  21  22  23  24  25  26  27  28  29  30  
   31  32  33  34  35  36  37  38  39  40  41  
[Printable]
631
FTUS41 KCTP 312135 AAA
TAFAOO
TAF AMD
KAOO 312135Z 3122/0118 12006KT P6SM -RA SCT025 OVC050
     FM010100 09003KT 6SM -RA BR OVC030
     FM010600 04005KT 5SM -RA BR OVC025
     FM011200 01004KT 2SM BR OVC015=


631
FTUS41 KCTP 312135 AAA
TAFAOO
TAF AMD
KAOO 312135Z 3122/0118 12006KT P6SM -RA SCT025 OVC050
     FM010100 09003KT 6SM -RA BR OVC030
     FM010600 04005KT 5SM -RA BR OVC025
     FM011200 01004KT 2SM BR OVC015=




U.S. Dept. of Commerce
NOAA National Weather Service
1325 East West Highway
Silver Spring, MD 20910
E-mail: w-nws.webmaster@noaa.gov
Page last modified: May 16, 2007
NATIONAL WEATHER SERVICE: for Safety, for Work, for Fun - FOR LIFE